This is the latest recevied weather packets stored in our database for station/object G1SCQ. If no packets are shown the sender has not sent any weather packets the latest 10 day(s).
| Time | Temp. | Humidity | Pressure | Rain* | Wind** | Luminosity | Snow |
|---|---|---|---|---|---|---|---|
| 1778180046 | 11.11° C | 77% | 1015.9 hPa | 0 mm | - | 12 W/m² | - |
| 1778179505 | 11.11° C | 76% | 1016 hPa | 0 mm | - | 13 W/m² | - |
| 1778178965 | 11.11° C | 76% | 1016 hPa | 0 mm | - | 15 W/m² | - |
| 1778178426 | 11.11° C | 75% | 1015.9 hPa | 0 mm | - | 17 W/m² | - |
| 1778177886 | 11.67° C | 74% | 1015.8 hPa | 0 mm | - | 18 W/m² | - |
| 1778177346 | 11.67° C | 73% | 1015.8 hPa | 0 mm | - | 21 W/m² | - |
| 1778176806 | 12.22° C | 72% | 1015.9 hPa | 0 mm | - | 27 W/m² | - |
| 1778176445 | 12.22° C | 72% | 1015.7 hPa | 0 mm | - | 33 W/m² | - |
| 1778175906 | 12.22° C | 70% | 1015.7 hPa | 0 mm | - | 44 W/m² | - |
| 1778175365 | 12.22° C | 70% | 1015.5 hPa | 0 mm | - | 52 W/m² | - |
| 1778174825 | 12.22° C | 69% | 1015.6 hPa | 0 mm | - | 59 W/m² | - |
| 1778174286 | 12.78° C | 68% | 1015.8 hPa | 0 mm | - | 68 W/m² | - |
| 1778173745 | 12.78° C | 63% | 1015.6 hPa | 0 mm | - | 71 W/m² | - |
| 1778173205 | 12.78° C | 63% | 1015.7 hPa | 0 mm | - | 78 W/m² | - |
| 1778172845 | 12.78° C | 63% | 1015.7 hPa | 0 mm | - | 81 W/m² | - |
| 1778172306 | 13.33° C | 62% | 1015.7 hPa | 0 mm | - | 79 W/m² | - |
| 1778171765 | 13.33° C | 61% | 1015.6 hPa | 0 mm | - | 83 W/m² | - |
| 1778171225 | 13.33° C | 61% | 1015.7 hPa | 0 mm | - | 114 W/m² | - |
| 1778170685 | 13.89° C | 60% | 1015.6 hPa | 0 mm | - | 147 W/m² | - |
| 1778170145 | 13.89° C | 59% | 1015.8 hPa | 0 mm | - | 173 W/m² | - |
| 1778169605 | 13.89° C | 59% | 1015.8 hPa | 0 mm | - | 175 W/m² | - |
| 1778169245 | 13.89° C | 58% | 1015.8 hPa | 0 mm | - | 186 W/m² | - |
| 1778168705 | 15° C | 57% | 1015.8 hPa | 0 mm | - | 239 W/m² | - |
| 1778168165 | 14.44° C | 58% | 1015.9 hPa | 0 mm | - | 345 W/m² | - |
| 1778167625 | 14.44° C | 59% | 1015.8 hPa | 0 mm | - | 241 W/m² | - |
* Rain latest hour (hover to see other rain measurements)
** Current wind speed in m/s (hover to see current wind gust speed)